Regional Weather Roundup
Issued by NWS Northern Indiana

Home | Current Version | Previous Version | Graphics & Text | Print | Product List | Glossary On
Versions: 1 2 3 4 5 6 7 8 9 10 11 12 13 14 15 16 17 18 19 20 21 22 23 24 25 26 27 28 29 30 31 32 33 34 35 36 37 38 39 40 41 42 43 44 45 46 47 48 49 50
000
ASUS43 KIWX 190501
RWRIWX

KIWX WEATHER ROUNDUP
NATIONAL WEATHER SERVICE NORTHERN INDIANA
100 AM EDT SAT AUG 19 2017

NOTE: "FAIR" INDICATES FEW OR NO CLOUDS BELOW 12,000 FEET WITH NO
SIGNIFICANT WEATHER AND/OR OBSTRUCTIONS TO VISIBILITY.

* THESE STATIONS ARE NOT UNDER NWS QUALITY CONTROL. THEY ALSO MAY NOT
  REPORT WEATHER SUCH AS PRECIPITATION OR FOG.

INZ001>027-190600-
NORTHERN INDIANA

CITY           SKY/WX    TMP DP  RH WIND       PRES   REMARKS
MICHIGAN CITY* MOCLDY    63  63 100 CALM      29.89S
SOUTH BEND     FAIR      64  63  96 CALM      29.89S
GOSHEN         FAIR      64  61  90 S5        29.89F
MONTICELLO*    CLOUDY    68  64  88 SW5       29.90S
FORT WAYNE     FAIR      64  61  90 SW5       29.90F
PERU/GRISSOM   FAIR      66  65  97 SW7       29.91S

$$
INZ028>050-190600-
CENTRAL INDIANA

CITY           SKY/WX    TMP DP  RH WIND       PRES   REMARKS
LAFAYETTE      FAIR      67  65  93 CALM      29.90F
KOKOMO*        FAIR      67  64  90 SW7       29.93S
MUNCIE*        FAIR      70  62  76 SW5       29.93S
INDIANAPOLIS   MOCLDY    70  63  78 SW6       29.93S

$$
MIZ043>046-050>051-056>058-064>065-071>073-077>080-190600-
SOUTHWEST LOWER MICHIGAN

CITY           SKY/WX    TMP DP  RH WIND       PRES   REMARKS
BATTLE CREEK   CLOUDY    64  61  90 S3        29.90S
BENTON HARBOR  MOCLDY    64  61  90 CALM      29.88S
COLDWATER*     MOCLDY    64  64 100 CALM      29.89F
HILLSDALE*     CLOUDY    61  59  94 CALM      29.90F
HOLLAND        MOCLDY    63  60  90 CALM      29.88S
GRAND RAPIDS   MOCLDY    64  62  93 SW3       29.87S
KALAMAZOO      CLOUDY    66  61  84 CALM      29.89S
STURGIS*       CLOUDY    65  63  93 MISG      29.89S
THREE RIVERS*  MOCLDY    66  62  86 CALM      29.90S

$$
OHZ001>008-015>018-024>025-190600-
NORTHWEST OHIO

CITY           SKY/WX    TMP DP  RH WIND       PRES   REMARKS
DEFIANCE       FAIR      65  62  90 CALM      29.91R
FINDLAY        FAIR      69  62  78 NW3       29.91R
TOLEDO EXPRESS FAIR      63  63 100 CALM      29.90R
TOLEDO METCALF MOCLDY    67  63  87 CALM      29.91R
LIMA           FAIR      65  62  90 S3        29.92S

$$
AND FOR LAKE MICHIGAN COASTAL AND OPEN LAKE BUOY OBSERVATIONS

STATION/POSITION TEMP    WIND        PRES    VSBY  WAVE
                 AIR SEA DIR/SP/G                  HT/PER
                 (F)     (DEG/KT/KT) (MB)    (MI)  (FT/S)
CALUMET HARBOR    74     290/  4/  5 1011.2S
MICHIGAN CITY     71     150/  4/  4   N/A
BURNS HARBOR      74     240/  4/  6 1012.2S
SAINT JOSEPH      69     140/  1/  2 1012.2
SOUTH LAKE BUOY   72 71  260/  8/  8 1011.2          1/ 4
4 MI NW BRIDGMAN  72 74  180/  6/  6 1011.5R         1/ 5
MICHIGAN CITY     72 74  180/  4/  4   N/A           1/ 4

$$
&&




USA.gov is the U.S. government's official web portal to all federal, state and local government web resources and services.